Temp
11 11 11 11 11 10 12 13 15 15 15 14 14 14 13 12 12 12 12 11 11 11 10 9 10 9 9 9 9 9 9 9 9 9 8 8 8 7 7 7 7 7 7 8 8 8 8 8 8
11 12 11 10 10 11 12 14 14 15 14 14 14 13 13 12 12 12 11 11 11 10 9 10 10 9 9 9 9 8 8 8 8 8 8 8 8 8 7 6 6 6 6 6 7 8 8 7 8
11 11 12 10 11 12 13 14 14 14 14 14 14 13 13 12 12 12 11 11 10 9 10 11 10 10 9 9 8 8 8 8 8 8 8 7 7 7 6 6 5 5 5 5 6 6 7 7 7
11 10 11 11 13 14 14 15 14 14 14 14 13 13 13 12 12 11 11 10 10 10 9 9 9 8 8 8 8 8 8 7 7 7 7 7 6 6 5 5 5 5 4 4 4 5 6 6 7
11 10 10 12 13 14 14 14 14 14 14 14 14 13 12 12 12 11 11 10 10 9 8 8 8 8 8 8 7 7 7 7 7 7 7 6 5 5 5 5 5 5 5 4 4 4 5 5 5
11 10 11 12 13 13 14 14 14 14 13 14 13 13 12 11 11 11 11 10 10 9 8 8 8 8 8 7 7 7 7 7 7 6 6 5 5 5 5 5 4 4 4 4 4 4 4 4 5
12 10 11 11 12 13 14 13 13 13 13 13 13 12 12 12 12 11 11 10 9 9 9 8 8 8 8 8 8 8 8 6 6 6 6 5 5 5 4 4 4 4 4 4 4 4 4 4 4
11 10 10 11 12 13 14 14 14 14 13 13 13 13 12 12 12 11 10 10 9 9 9 9 8 8 8 7 8 8 7 7 6 5 6 5 5 4 4 4 4 4 4 4 4 4 3 4 4
9 9 10 11 12 13 13 14 14 14 13 13 13 12 12 12 11 11 10 10 9 9 9 9 8 8 7 7 7 7 6 7 6 5 5 5 4 4 4 4 4 4 4 4 4 3 3 3 3
9 9 11 12 12 12 13 13 13 13 13 13 13 12 12 11 12 11 10 10 8 8 8 8 8 7 7 7 7 7 6 7 5 5 5 4 4 4 4 4 4 4 4 3 3 3 3 3 3
10 10 12 11 12 12 13 13 13 13 13 13 13 12 11 11 11 10 10 10 9 8 8 8 7 8 7 7 7 6 5 5 5 4 4 4 3 4 4 4 4 4 3 2 3 3 3 3 3
9 10 11 11 12 12 12 13 13 13 13 13 13 12 12 12 11 10 10 9 9 8 8 8 8 8 7 7 7 6 5 5 5 5 4 3 3 3 3 3 3 3 2 2 2 2 2 2 3
10 10 11 11 12 12 12 12 13 13 13 13 12 12 12 12 11 10 10 10 10 9 9 9 8 8 7 7 6 5 5 4 4 4 4 4 3 2 1 2 2 2 2 2 2 2 2 2 2
10 10 11 11 12 12 12 12 12 13 13 13 12 12 12 11 10 10 9 9 9 9 9 9 8 7 7 6 6 5 4 4 4 4 4 4 3 2 2 2 2 2 2 2 2 2 2 2 3
10 10 11 11 12 12 12 12 13 13 13 13 12 12 12 11 10 10 10 10 10 9 9 9 8 7 7 7 6 5 4 4 4 4 3 3 2 2 2 1 2 2 2 2 2 2 2 2 3
10 10 11 11 12 12 12 13 13 13 13 12 12 12 12 11 11 11 10 10 10 10 9 9 7 7 7 6 5 4 4 3 4 4 3 3 1 1 2 1 1 2 2 2 2 2 2 2 2
9 9 10 11 11 12 12 13 13 13 13 13 12 12 12 12 11 11 10 10 10 10 9 8 7 7 6 6 5 4 4 3 4 3 3 3 3 3 2 2 1 2 2 2 2 2 2 2 2
8 9 10 11 12 12 13 13 14 13 13 13 13 12 12 12 11 11 10 10 10 10 9 8 7 7 6 5 5 4 4 3 3 3 3 3 3 3 2 2 2 2 2 2 2 2 2 2 2
9 10 10 11 12 13 13 13 14 14 13 13 13 13 12 12 11 11 10 10 10 10 9 8 7 7 6 5 4 4 4 4 3 3 3 3 3 3 2 2 2 2 2 2 2 2 2 2 2
9 9 10 11 12 13 13 13 13 14 13 13 13 13 13 12 12 11 10 10 10 10 9 8 7 7 6 5 4 4 3 3 3 3 3 3 3 3 2 2 2 2 1 2 2 2 2 2 2
9 10 10 11 12 13 13 14 14 14 14 13 13 13 13 12 12 12 11 10 10 10 9 8 7 6 5 5 4 4 3 3 3 3 3 2 2 2 2 2 2 2 2 1 2 2 2 2 2
9 10 11 11 12 12 13 12 13 13 13 13 14 13 13 12 12 11 11 11 10 9 9 8 7 6 5 5 5 4 3 3 3 3 3 2 2 2 2 2 2 1 1 1 1 1 2 2 3
10 11 11 12 12 13 13 13 13 13 13 13 13 13 13 12 12 11 11 10 10 9 8 7 6 6 5 5 4 4 3 3 3 3 3 3 2 2 2 2 2 2 1 1 1 1 2 2 2
11 11 12 12 13 11 13 13 13 13 13 13 13 13 13 12 11 11 11 10 9 9 8 7 6 6 5 5 5 4 3 4 4 3 3 2 2 2 2 2 2 2 1 2 2 2 2 1 2
11 12 11 9 10 7 13 13 13 14 13 13 13 13 12 12 11 11 10 10 9 9 8 7 6 6 5 5 5 4 3 3 3 3 2 2 2 2 3 2 2 2 2 2 2 2 1 2 3
12 12 11 8 7 10 13 12 13 13 13 13 13 12 12 12 11 11 10 9 9 8 7 7 6 6 5 5 5 4 4 3 3 3 3 2 2 3 3 3 2 2 2 2 2 3 3 3 3
12 13 13 13 13 12 13 14 14 14 14 13 12 12 12 11 11 10 10 9 9 8 7 7 6 6 5 5 5 4 4 3 3 3 2 3 2 2 3 3 3 2 2 2 3 3 3 3 3
12 13 13 13 9 8 12 13 14 13 13 12 12 11 11 11 11 11 9 9 8 8 7 6 6 6 5 5 5 4 4 3 3 2 3 3 3 3 3 3 3 3 3 3 3 3 2 3 3
13 13 13 13 13 7 8 11 14 13 13 12 12 12 11 11 11 10 9 8 8 8 7 7 6 6 5 5 4 4 4 3 3 2 3 3 3 3 3 3 3 3 2 2 2 2 2 3 3
13 13 13 12 12 12 12 12 13 13 12 12 12 11 11 11 10 10 9 9 9 8 7 7 6 6 5 5 5 4 4 3 3 2 3 3 3 3 3 3 3 3 3 2 2 2 2 2 3
Height
3178 3178 3177 3177 3180 3176 3174 3173 3176 3173 3170 3169 3169 3171 3169 3166 3167 3172 3169 3167 3167 3166 3165 3162 3161 3160 3158 3155 3152 3150 3147 3145 3144 3143 3142 3141 3140 3138 3136 3135 3135 3136 3137 3138 3139 3140 3143 3146 3147
3178 3177 3177 3176 3177 3175 3174 3174 3175 3172 3168 3168 3168 3168 3165 3164 3164 3166 3167 3166 3165 3163 3161 3159 3157 3155 3154 3150 3147 3144 3142 3140 3138 3137 3136 3135 3134 3133 3131 3130 3129 3129 3129 3130 3132 3134 3137 3140 3141
3177 3178 3175 3173 3173 3170 3173 3174 3171 3170 3169 3166 3166 3165 3164 3164 3161 3162 3164 3162 3160 3157 3156 3156 3152 3149 3148 3145 3142 3139 3137 3135 3133 3131 3129 3128 3127 3126 3124 3124 3124 3123 3123 3125 3127 3129 3130 3132 3135
3177 3177 3176 3174 3171 3171 3174 3171 3170 3170 3168 3166 3163 3162 3162 3161 3162 3164 3162 3160 3157 3151 3149 3148 3147 3144 3143 3140 3138 3136 3132 3130 3127 3125 3123 3121 3120 3118 3117 3118 3118 3118 3118 3119 3121 3123 3125 3126 3129
3175 3174 3173 3171 3168 3170 3172 3168 3167 3167 3168 3166 3162 3158 3158 3158 3159 3159 3160 3158 3154 3151 3148 3146 3144 3142 3140 3138 3135 3132 3128 3125 3121 3119 3117 3115 3113 3112 3111 3110 3111 3112 3112 3113 3114 3116 3118 3120 3122
3174 3173 3173 3170 3167 3169 3169 3166 3165 3166 3166 3165 3162 3157 3157 3157 3158 3156 3156 3155 3151 3148 3146 3145 3142 3140 3136 3134 3132 3128 3124 3119 3116 3114 3111 3109 3107 3106 3105 3104 3104 3105 3105 3107 3108 3110 3113 3114 3117
3172 3170 3167 3169 3167 3166 3166 3165 3164 3166 3163 3161 3160 3159 3155 3155 3154 3153 3152 3150 3148 3146 3143 3143 3140 3136 3132 3127 3123 3121 3118 3114 3111 3108 3105 3103 3102 3101 3099 3097 3097 3096 3097 3100 3102 3104 3107 3109 3112
3171 3170 3165 3166 3165 3163 3166 3164 3163 3160 3157 3157 3156 3157 3154 3153 3152 3150 3148 3147 3145 3144 3141 3136 3130 3129 3125 3121 3118 3115 3112 3108 3106 3101 3098 3096 3096 3094 3093 3092 3091 3090 3090 3093 3096 3098 3101 3105 3108
3168 3167 3161 3161 3162 3159 3162 3161 3160 3159 3157 3156 3153 3150 3150 3150 3149 3147 3144 3141 3140 3136 3133 3130 3129 3125 3120 3115 3113 3109 3106 3104 3101 3096 3093 3091 3090 3089 3086 3085 3085 3085 3085 3087 3091 3093 3097 3100 3104
3163 3162 3156 3159 3159 3157 3158 3157 3156 3155 3155 3153 3150 3147 3147 3149 3147 3145 3142 3141 3135 3131 3127 3127 3127 3125 3124 3119 3110 3104 3100 3097 3094 3091 3089 3087 3086 3084 3082 3081 3081 3080 3081 3083 3085 3088 3092 3096 3100
3157 3153 3152 3153 3155 3155 3154 3153 3152 3152 3152 3151 3146 3145 3145 3144 3143 3142 3139 3136 3134 3133 3128 3126 3127 3125 3122 3116 3109 3102 3098 3095 3090 3088 3085 3083 3080 3079 3078 3076 3076 3076 3076 3078 3081 3084 3088 3093 3096
3151 3150 3149 3149 3150 3151 3151 3148 3147 3148 3148 3147 3145 3142 3141 3141 3139 3138 3138 3134 3131 3131 3128 3125 3125 3121 3116 3110 3104 3099 3094 3091 3086 3084 3081 3079 3076 3075 3073 3072 3072 3072 3073 3074 3077 3080 3084 3089 3092
3145 3144 3146 3145 3145 3147 3146 3144 3144 3143 3145 3144 3140 3139 3139 3137 3136 3135 3134 3132 3129 3127 3127 3125 3121 3116 3112 3106 3100 3096 3091 3087 3083 3080 3078 3075 3072 3071 3069 3069 3068 3068 3068 3069 3073 3076 3081 3085 3089
3139 3140 3139 3140 3141 3141 3140 3139 3138 3139 3140 3138 3137 3135 3135 3132 3131 3130 3127 3127 3125 3123 3122 3120 3117 3114 3108 3102 3096 3092 3088 3084 3079 3076 3073 3072 3069 3066 3064 3065 3064 3063 3064 3066 3070 3073 3078 3082 3087
3134 3133 3131 3132 3134 3131 3135 3132 3131 3134 3134 3133 3131 3130 3130 3128 3126 3124 3123 3125 3123 3121 3120 3116 3112 3109 3105 3098 3093 3088 3084 3081 3076 3072 3068 3065 3062 3060 3061 3061 3061 3060 3061 3063 3066 3070 3075 3079 3084
3125 3126 3123 3124 3127 3124 3131 3122 3125 3128 3128 3127 3127 3125 3123 3123 3120 3119 3118 3119 3119 3116 3115 3112 3108 3103 3098 3093 3089 3085 3082 3079 3074 3069 3066 3061 3057 3056 3058 3059 3058 3057 3058 3060 3063 3069 3073 3077 3083
3117 3114 3116 3116 3119 3120 3122 3116 3117 3120 3121 3122 3121 3121 3120 3119 3117 3114 3111 3113 3114 3112 3110 3107 3104 3101 3096 3091 3086 3082 3079 3077 3073 3069 3065 3059 3055 3055 3056 3057 3056 3055 3056 3058 3062 3067 3072 3077 3081
3110 3111 3113 3112 3109 3115 3116 3112 3111 3114 3114 3115 3115 3114 3113 3112 3111 3106 3107 3109 3110 3109 3106 3103 3100 3098 3093 3088 3084 3081 3078 3075 3071 3068 3064 3059 3055 3055 3055 3056 3055 3055 3055 3057 3060 3067 3072 3076 3080
3107 3109 3108 3105 3106 3112 3112 3110 3109 3109 3110 3111 3111 3110 3108 3107 3104 3103 3104 3106 3106 3105 3103 3100 3098 3095 3090 3087 3083 3080 3077 3072 3069 3066 3063 3059 3054 3054 3054 3054 3055 3054 3056 3059 3062 3067 3072 3076 3081
3102 3103 3101 3101 3102 3107 3104 3102 3104 3103 3106 3106 3106 3103 3102 3101 3100 3100 3101 3103 3102 3100 3098 3096 3094 3091 3088 3085 3082 3079 3076 3071 3067 3063 3060 3057 3054 3053 3053 3053 3054 3054 3057 3060 3063 3067 3072 3075 3081
3094 3097 3097 3100 3097 3097 3099 3097 3099 3100 3100 3100 3098 3096 3095 3096 3097 3097 3099 3099 3097 3096 3094 3093 3091 3088 3086 3084 3082 3078 3072 3068 3064 3061 3059 3056 3053 3051 3052 3053 3055 3056 3058 3061 3064 3067 3072 3076 3082
3087 3091 3095 3095 3096 3094 3095 3093 3094 3095 3094 3094 3092 3089 3091 3092 3093 3094 3096 3095 3094 3092 3090 3089 3087 3085 3084 3083 3081 3077 3072 3067 3062 3059 3057 3055 3052 3049 3051 3054 3055 3057 3058 3062 3065 3069 3073 3077 3081
3078 3087 3088 3089 3090 3091 3090 3092 3087 3091 3090 3089 3087 3086 3086 3087 3088 3091 3092 3091 3090 3088 3087 3086 3084 3083 3082 3082 3080 3077 3072 3066 3061 3058 3056 3055 3052 3051 3052 3054 3055 3058 3060 3064 3068 3071 3075 3079 3082
3076 3082 3083 3085 3086 3084 3086 3089 3081 3085 3086 3085 3085 3084 3083 3084 3085 3088 3088 3087 3086 3085 3085 3083 3082 3081 3080 3081 3079 3076 3072 3067 3064 3060 3057 3055 3052 3051 3053 3054 3057 3060 3063 3067 3070 3074 3077 3080 3081
3072 3075 3077 3081 3080 3078 3082 3086 3080 3080 3081 3081 3080 3080 3082 3083 3085 3085 3085 3084 3083 3083 3082 3081 3080 3079 3079 3079 3078 3076 3072 3069 3065 3062 3058 3054 3052 3051 3054 3055 3059 3062 3066 3068 3071 3075 3078 3081 3083
3060 3067 3068 3078 3077 3075 3077 3078 3072 3075 3078 3077 3077 3077 3080 3081 3083 3082 3081 3081 3081 3081 3080 3078 3078 3078 3078 3077 3077 3075 3072 3069 3066 3063 3060 3057 3054 3054 3056 3058 3061 3064 3067 3070 3072 3075 3078 3081 3086
3053 3054 3061 3066 3068 3072 3072 3072 3069 3071 3074 3074 3075 3076 3078 3079 3080 3079 3078 3079 3079 3079 3078 3077 3076 3076 3077 3076 3076 3075 3072 3071 3068 3064 3060 3058 3058 3058 3059 3061 3064 3066 3069 3071 3074 3078 3081 3084 3088
3044 3052 3057 3059 3069 3074 3068 3067 3065 3066 3069 3072 3072 3075 3077 3078 3078 3077 3077 3077 3076 3077 3077 3077 3075 3076 3076 3075 3076 3075 3073 3072 3069 3064 3060 3060 3061 3061 3062 3064 3066 3068 3072 3074 3078 3080 3083 3087 3090
3036 3043 3047 3056 3060 3067 3072 3065 3060 3062 3065 3067 3071 3074 3075 3075 3075 3075 3076 3075 3075 3077 3077 3076 3075 3076 3076 3075 3075 3075 3074 3073 3071 3067 3064 3064 3065 3065 3065 3067 3069 3072 3075 3077 3080 3083 3087 3090 3093
3032 3037 3042 3046 3054 3060 3063 3064 3060 3062 3064 3066 3069 3072 3074 3075 3074 3074 3074 3073 3074 3076 3077 3076 3075 3075 3075 3076 3076 3076 3075 3074 3073 3072 3070 3069 3068 3068 3069 3070 3072 3076 3079 3080 3084 3087 3090 3093 3096
Wind_Speed
6 5 5 2 1 5 14 15 18 10 11 8 11 14 8 7 10 11 16 18 23 30 31 30 25 25 24 26 26 26 27 26 25 24 26 26 26 26 27 27 28 29 27 25 27 27 25 27 27
5 4 2 2 6 10 11 7 11 10 15 13 14 10 8 6 11 15 18 29 31 29 29 27 24 20 23 26 26 26 25 25 26 27 27 28 28 28 28 29 28 29 28 26 26 29 30 27 29
4 1 3 4 11 18 14 6 12 15 14 16 13 4 11 13 19 21 23 25 30 28 26 23 25 25 26 27 26 24 25 27 28 27 29 30 29 28 28 26 25 27 28 27 26 27 31 32 30
5 2 3 10 13 14 15 12 5 13 7 14 7 9 12 14 17 17 21 24 31 29 25 24 24 27 29 27 25 26 27 29 28 28 30 30 29 28 28 28 26 27 28 27 26 27 29 32 32
5 2 11 15 21 22 21 18 12 12 7 13 12 10 13 11 15 21 24 25 26 25 20 21 21 21 22 24 25 27 28 29 29 30 30 30 30 28 29 30 29 29 28 28 28 25 25 30 30
9 2 10 18 22 26 18 13 11 15 10 10 7 9 9 12 19 24 24 23 26 22 19 18 22 22 23 24 23 25 28 29 30 30 28 28 28 29 30 32 32 29 29 29 28 27 24 27 27
12 8 16 23 27 24 17 11 10 13 17 17 17 12 18 18 23 25 27 28 22 18 19 19 22 28 28 29 30 31 30 28 27 28 28 28 27 27 28 30 29 27 27 27 29 28 26 23 25
12 8 17 22 24 25 22 27 15 9 15 19 19 20 25 27 29 24 24 23 18 20 19 25 30 34 37 34 35 35 32 30 26 27 28 26 24 25 25 26 25 25 27 26 27 28 27 24 21
7 19 27 26 21 22 27 25 13 18 18 16 21 22 23 19 21 22 25 22 20 24 25 27 30 34 39 38 39 36 31 27 23 23 24 22 22 22 22 21 21 19 19 24 26 27 25 23 20
18 26 32 23 22 26 28 27 21 19 20 23 19 22 20 16 23 22 23 19 18 20 27 30 31 31 35 34 37 34 30 30 22 21 19 20 21 20 20 20 18 18 17 18 25 26 25 22 19
26 33 28 25 23 23 26 30 28 23 21 16 14 14 13 19 22 23 23 22 20 23 31 32 30 32 35 34 32 29 26 26 19 17 18 20 20 21 21 19 18 17 18 17 22 26 24 21 18
32 34 30 29 31 33 30 38 37 20 21 22 20 23 18 25 28 27 23 22 20 27 30 28 29 33 36 33 29 24 27 22 19 18 17 19 21 20 18 18 16 13 16 16 20 23 21 20 20
30 29 32 31 33 36 32 32 26 25 25 18 17 19 23 31 30 28 28 29 27 29 27 26 29 32 35 31 26 23 22 20 20 20 21 18 19 18 20 15 15 14 15 16 18 20 21 19 20
32 39 39 38 34 33 34 33 31 29 27 24 28 24 26 29 25 23 29 32 34 31 26 28 29 30 32 29 25 22 19 19 19 18 17 18 18 19 12 12 12 14 15 15 20 18 19 20 20
35 39 38 38 37 39 32 37 32 26 25 25 27 27 29 25 24 30 32 31 30 24 24 29 29 30 30 27 24 22 18 18 16 18 18 23 16 16 13 10 12 13 14 14 20 21 18 20 21
36 37 43 42 35 36 31 45 37 32 25 25 29 31 27 24 26 29 33 31 24 21 25 27 27 30 30 25 22 18 22 14 14 21 20 21 16 11 12 9 11 9 9 15 21 23 19 16 19
37 37 36 36 33 32 37 39 38 36 25 25 27 26 24 29 26 37 33 28 21 22 26 26 24 27 25 22 22 23 16 11 17 19 22 18 10 7 9 8 7 6 6 14 22 25 17 14 21
33 32 31 35 30 30 34 26 37 20 24 28 25 25 27 22 33 38 31 25 20 21 24 24 22 24 21 20 22 16 12 10 13 16 18 21 8 5 7 7 6 4 7 13 24 27 17 15 21
31 28 33 35 35 33 24 25 19 27 23 23 24 27 30 24 29 33 28 23 23 25 23 23 19 21 18 16 16 16 17 17 17 18 18 18 10 5 6 6 3 4 9 13 23 26 20 19 24
34 35 39 39 37 24 26 23 20 16 21 23 30 28 22 25 26 29 27 22 25 26 23 20 18 17 15 12 15 17 16 17 21 17 17 16 14 4 6 6 4 6 13 17 21 23 21 23 25
37 38 39 38 31 27 27 21 19 21 25 24 21 21 25 23 23 24 24 23 22 23 22 17 16 15 12 9 15 20 21 21 17 15 14 15 15 4 8 7 5 8 13 17 17 21 21 24 28
38 36 31 32 34 26 20 15 24 24 25 22 25 19 14 17 20 22 19 19 18 20 19 15 14 12 9 9 14 20 21 21 19 12 10 12 16 3 9 7 8 11 16 19 17 17 21 26 28
42 31 34 36 38 34 21 18 27 26 25 22 7 7 11 16 20 18 16 18 20 17 13 15 12 11 7 7 13 19 19 25 16 11 8 10 11 1 8 9 10 14 15 19 17 17 21 18 23
29 34 37 36 35 14 20 19 32 26 24 9 9 7 10 15 17 15 18 17 16 13 13 12 11 9 7 5 10 16 16 20 14 17 12 12 10 2 9 8 11 15 16 17 16 12 18 10 22
39 34 20 10 7 7 19 19 31 20 12 12 9 6 6 10 13 16 18 16 11 10 13 9 10 7 7 5 10 14 15 17 17 13 19 13 9 4 10 9 13 15 16 15 14 13 20 14 15
42 41 21 7 4 7 26 18 31 24 24 14 8 6 6 12 15 17 17 12 7 12 9 10 9 5 6 6 9 11 13 14 16 16 20 10 10 10 10 12 16 15 17 16 14 13 18 19 18
39 41 35 22 12 10 19 16 9 17 17 12 10 11 12 13 11 13 12 6 11 9 6 9 9 6 4 7 9 10 11 12 15 17 19 7 10 9 10 11 15 15 18 17 14 14 16 16 20
45 29 28 16 8 5 7 18 20 21 16 15 16 12 8 6 6 8 6 9 11 4 5 7 7 5 4 6 8 9 11 12 16 22 13 9 9 12 12 12 14 14 16 15 15 14 19 20 17
42 41 33 29 21 5 2 11 18 20 19 20 14 9 8 4 5 6 7 10 5 2 3 5 4 3 3 5 7 8 10 10 16 19 13 10 12 10 11 14 14 15 14 15 17 17 19 18 13
38 37 33 26 16 27 22 10 16 16 17 14 10 6 7 6 4 5 8 6 3 2 2 4 3 1 1 3 4 5 9 8 12 18 15 10 8 10 13 14 15 16 15 16 19 17 18 16 13
Wind_Direction
60 52 5 292 277 279 277 305 345 248 332 335 318 307 317 290 267 264 267 281 293 301 305 304 298 297 298 298 297 296 298 299 297 296 292 286 282 279 278 275 270 268 264 252 247 248 244 235 238
32 15 64 28 272 280 298 314 299 338 355 328 317 306 263 267 268 271 278 300 305 303 301 300 298 295 302 303 303 302 302 301 299 295 293 289 285 281 277 274 273 272 270 265 253 245 244 238 234
38 328 57 320 282 265 269 301 294 315 313 317 308 226 235 260 279 287 299 308 314 300 296 306 311 313 312 310 309 308 305 300 298 297 294 289 285 280 277 273 270 269 267 263 257 250 243 240 234
163 175 333 248 278 311 329 298 300 278 347 325 272 236 261 270 278 295 302 309 311 307 314 321 322 319 315 313 312 308 304 304 301 296 293 290 285 283 278 274 272 269 263 261 258 251 247 242 234
215 161 261 276 291 307 307 310 259 309 328 312 290 267 251 277 301 308 309 306 307 307 318 337 337 321 314 313 311 308 307 303 299 296 294 291 287 284 283 282 276 268 262 255 254 253 247 245 237
211 154 266 283 303 307 311 261 288 295 300 281 293 259 293 307 304 297 302 302 309 307 315 334 343 336 323 314 311 311 308 303 299 295 292 289 288 288 284 280 275 268 260 256 251 246 247 244 240
264 207 251 272 286 296 315 5 347 290 295 268 273 288 298 296 293 298 310 309 308 300 312 323 337 343 332 327 325 321 316 307 302 298 293 292 289 284 278 275 276 272 264 255 249 240 244 247 240
246 243 265 265 277 283 315 314 317 288 304 271 272 278 280 284 297 298 308 303 297 294 318 341 345 338 338 329 326 322 317 309 308 301 298 291 287 281 278 277 277 271 259 252 243 237 239 243 243
238 257 262 267 270 282 304 313 302 283 310 280 283 302 273 284 300 287 303 307 300 317 326 336 334 332 336 326 321 319 316 312 311 300 295 292 289 283 283 282 277 276 262 249 238 234 235 238 241
221 239 257 276 273 280 294 299 295 307 292 300 273 258 262 267 295 287 299 302 305 305 309 323 318 324 325 319 318 316 318 319 315 304 300 299 294 294 286 277 268 265 259 249 233 232 230 231 231
242 233 263 271 275 276 287 288 289 284 292 297 299 277 261 286 278 282 297 299 302 293 295 304 308 315 320 317 316 315 320 318 311 304 301 303 302 298 286 274 268 265 255 229 235 228 227 225 222
237 250 260 273 273 273 280 278 285 282 281 279 282 276 278 288 291 289 290 283 279 279 290 306 303 309 318 321 318 315 320 320 318 315 307 303 299 295 286 272 261 251 247 238 233 224 223 217 217
246 250 256 265 268 271 273 278 279 276 272 280 266 265 280 283 284 283 283 288 294 294 296 303 307 310 318 317 316 319 322 321 317 310 310 305 293 295 285 264 264 262 252 240 222 215 213 211 211
246 255 261 267 273 274 264 275 277 279 272 274 256 269 281 283 278 276 273 284 294 296 296 304 302 306 318 318 322 322 318 322 319 314 315 300 302 283 272 264 268 275 252 232 215 201 205 205 206
248 258 257 261 269 265 267 269 262 271 269 270 267 266 279 274 270 281 274 283 296 287 294 299 301 307 320 323 321 321 324 330 330 334 321 320 307 289 253 257 277 280 250 219 204 196 198 197 205
240 251 263 262 259 255 261 266 265 257 263 266 278 263 270 267 279 273 274 294 303 291 289 299 301 315 326 326 329 322 324 330 346 348 332 325 302 266 234 257 287 280 238 210 197 192 191 198 197
235 256 253 262 257 254 263 265 269 258 249 267 268 272 264 270 263 278 272 289 296 290 289 298 301 318 324 329 333 331 321 309 333 344 345 340 324 217 225 248 284 257 214 195 190 184 184 181 188
237 245 249 254 261 254 264 278 258 251 257 268 264 268 281 257 273 270 267 284 287 290 288 294 303 320 327 335 337 336 334 333 340 339 345 353 320 253 224 236 271 241 186 184 182 174 175 175 176
242 241 246 251 263 260 249 260 260 263 262 261 261 281 276 282 260 259 261 281 291 291 288 293 305 321 331 339 342 343 334 333 326 320 329 347 334 255 214 227 260 203 175 167 173 174 178 172 173
240 242 248 256 268 274 255 256 253 254 239 272 286 279 270 267 267 260 261 285 299 289 289 294 310 326 331 344 353 346 337 334 329 328 325 338 352 250 217 209 204 177 171 166 169 177 183 178 172
235 239 246 258 270 275 284 285 283 287 280 283 286 289 260 250 263 271 270 290 297 289 287 292 314 327 331 339 347 349 347 340 334 334 332 336 339 263 214 203 169 164 166 176 173 183 184 175 170
237 237 243 250 259 265 273 295 289 283 286 287 284 253 256 268 261 258 284 288 294 287 283 298 315 324 326 334 346 347 356 1 339 322 330 332 356 171 195 185 167 159 165 173 180 184 174 173 184
232 234 235 243 250 260 260 268 274 285 280 282 257 255 277 263 267 266 281 288 295 283 286 303 318 315 318 336 344 347 359 354 1 3 352 352 359 181 163 173 177 163 159 161 164 168 164 171 179
221 232 242 246 250 238 249 249 276 273 278 223 255 263 263 256 251 266 295 302 299 287 300 309 315 306 310 330 341 348 358 4 23 18 8 350 359 346 172 172 167 155 158 152 153 168 188 201 201
230 225 237 254 220 223 257 268 261 273 275 242 240 241 214 256 258 283 305 300 282 300 312 307 319 304 308 330 343 347 356 13 20 22 4 4 11 125 162 159 146 157 160 164 156 159 162 164 171
223 218 215 209 182 244 252 248 264 268 248 228 231 228 232 270 284 298 303 286 274 316 315 316 318 297 314 335 346 346 356 7 14 23 11 11 32 125 136 142 154 152 160 157 153 153 167 167 170
226 221 221 229 229 237 251 274 259 223 208 213 223 222 246 277 302 301 301 267 308 317 317 323 319 316 326 340 344 351 5 17 20 12 358 24 62 100 140 144 147 151 157 159 150 151 152 157 153
227 228 192 200 201 246 285 296 291 215 193 183 195 199 251 284 301 300 278 310 319 330 331 325 308 321 356 331 343 6 25 27 24 7 39 56 74 92 114 143 159 161 163 157 147 144 141 145 151
219 224 203 208 210 170 225 269 282 179 170 178 183 237 242 238 271 288 297 319 303 318 354 331 303 304 11 335 340 7 38 34 31 28 65 65 88 77 110 129 138 153 151 148 152 147 150 155 155
219 217 203 194 188 219 227 250 164 169 169 183 211 201 214 230 262 267 313 325 271 236 42 359 319 258 307 11 345 20 59 43 42 59 52 61 88 80 103 121 123 128 133 140 138 147 146 151 148